Location: Unspecified
(0.0000°N, 0.0000°E)
Time: 17:47:22
(UTC+00:00)

STARLINK 1062 - Pass Details

Date: 19 January 2020
Orbit: 548 x 551 km, 53.0° (Epoch: 22 January)

Event Time Altitude Azimuth Distance (km) Brightness Sun altitude
Rises 05:16:17 0° 195° (SSW) 2,720 7.2 -12.7°
Reaches altitude 10° 05:18:47 10° 183° (S) 1,823 6.5 -12.1°
Maximum altitude 05:22:19 27° 124° (SE) 1,078 6.0 -11.3°
Drops below altitude 10° 05:25:49 10° 66° (ENE) 1,814 6.9 -10.5°
Sets 05:28:17 0° 54° (NE) 2,703 7.6 -9.9°
